sat.trackr.live / text

‹ back to catalog

STARLINK-2046

NORAD 47354 · 2021-005F

PAYLOAD ACTIVE UNKNOWN

§ Identity

Operator
Country
US
Launch date
2021-01-20
Launch site
AFETR
Launch vehicle
Mass (kg)
RCS (m²)

Purposes: comms

External: N2YO · Heavens-Above · Gunter

§ Orbital elements

Epoch: 2026-09-19T13:24:56.939904Z

Period
93.87 min
Inclination
53.1577°
Eccentricity
0.0003553
Mean motion
15.34010553 rev/d
Perigee alt
461.4 km
Apogee alt
466.3 km
Semi-major
6,842.0 km
B*
1.0802e-3
RAAN
201.4485°
Arg perigee
90.9823°
Mean anomaly
269.1586°
Rev number
31,328

§ Raw data

STARLINK-20461 47354U 21005F   26262.55899236  .00035852  00000+0  10802-2 0  99912 47354  53.1577 201.4485 0003553  90.9823 269.1586 15.34010553313285

JSON: /api/v1/satellites/47354 · /tle

For live sub-satellite position, see the globe view (requires WebGL).

§ Visibility from observer

Set your observer location to see the next 7 days of passes ≥ 10°. The values pass through the URL so the page stays shareable.

No JS? Fill the form by hand. The geolocation button needs JavaScript.